This demonstration page uses our WeatherBlox Daily Observations layout. Learn more.

Left ArrowRight Arrow

41.86663, -103.66717

Hourly Observations for November 1, 2016

Temp ( °F °C ) Dew Point ( °F °C ) Humidity (%) Winds ( mph kmh ) Pressure ( in mb ) Visibility ( mi km ) Precip ( " mm )
12:53 am 00:53 Clear 39 3.9 25 -3.9 57 57 VRB 6 9 29.85 1011 10 16 N/A
1:53 am 01:53 Clear 35 1.7 24 -4.4 64 64 NNE 6 9 29.87 1012 10 16 N/A
2:53 am 02:53 Clear 36 2.2 25 -3.9 64 64 SE 7 11 29.91 1013 10 16 N/A
3:53 am 03:53 Clear 36 2.2 24 -4.4 62 62 NNE 9 15 29.90 1013 10 16 N/A
4:53 am 04:53 Clear 35 1.7 24 -4.4 64 64 WSW 3 6 29.90 1012 10 16 N/A
5:53 am 05:53 Partly Cloudy 37 2.8 28 -2.2 70 70 S 3 6 29.92 1013 10 16 N/A
6:53 am 06:53 Cloudy 39 3.9 28 -2.2 65 65 NW 3 6 29.93 1014 10 16 N/A
7:53 am 07:53 Partly Cloudy 40 4.4 28 -2.2 63 63 N N/A 29.92 1013 10 16 N/A
8:53 am 08:53 Hazy 43 6.1 30 -1.1 60 60 E 6 9 29.97 1015 4 6 N/A
9:53 am 09:53 Mostly Cloudy 50 10 30 -1.1 46 46 N N/A 29.95 1014 10 16 N/A
10:53 am 10:53 Sunny 54 12.2 30 -1.1 40 40 N N/A 29.95 1014 10 16 N/A
11:53 am 11:53 Mostly Cloudy 59 15 26 -3.3 28 28 SSE 7 11 29.93 1014 10 16 N/A
12:53 pm 12:53 Mostly Sunny 61 16.1 28 -2.2 29 29 N N/A 29.91 1013 10 16 N/A
1:53 pm 13:53 Partly Cloudy 63 17.2 26 -3.3 25 25 N N/A 29.89 1012 10 16 N/A
2:53 pm 14:53 Sunny 64 17.8 26 -3.3 24 24 NNW 8 13 29.89 1012 10 16 N/A
3:53 pm 15:53 Sunny 65 18.3 25 -3.9 22 22 N 8 13 29.88 1012 10 16 N/A
4:53 pm 16:53 Sunny 64 17.8 25 -3.9 23 23 N 9 15 29.89 1012 10 16 N/A
5:53 pm 17:53 Clear 59 15 28 -2 31 31 W 13 20 29.74 1007 10 16 N/A
6:53 pm 18:53 Clear 54 12.2 26 -3.3 34 34 NNE 9 15 29.94 1014 10 16 N/A
7:53 pm 19:53 Clear 51 10.6 26 -3.3 38 38 SSW 3 6 29.97 1015 10 16 N/A
8:53 pm 20:53 Clear 49 9.4 28 -2.2 44 44 NNE 7 11 29.99 1016 10 16 N/A
9:53 pm 21:53 Partly Cloudy 50 10 26 -3.3 39 39 ESE 6 9 29.99 1016 10 16 N/A
10:53 pm 22:53 Clear 46 7.8 28 -2.2 50 50 E 3 6 30.01 1016 10 16 N/A
11:53 pm 23:53 Mostly Cloudy 46 7.8 28 -2.2 50 50 WSW 6 9 30.04 1017 9 14 N/A

Powered by AerisWeather